This demonstration page uses our WeatherBlox Daily Observations layout. Learn more.

Left ArrowRight Arrow

41.86663, -103.66717

Hourly Observations for June 1, 2021

Temp ( °F °C ) Dew Point ( °F °C ) Humidity (%) Winds ( mph kmh ) Pressure ( in mb ) Visibility ( mi km ) Precip ( " mm )
12:53 am 00:53 Clear 49 9.4 39 3.9 69 69 E 7 11 30.14 1021 10 16 N/A
1:53 am 01:53 Clear 48 8.9 39 3.9 71 71 ESE 8 13 30.12 1020 10 16 N/A
2:53 am 02:53 Clear 49 9.4 41 5 74 74 E 10 17 30.11 1020 10 16 N/A
3:53 am 03:53 Clear 49 9.4 43 6.1 80 80 E 9 15 30.10 1019 10 16 N/A
4:53 am 04:53 Partly Cloudy 51 10.6 46 7.8 83 83 ESE 7 11 30.09 1019 10 16 N/A
5:53 am 05:53 Sunny 52 11.1 48 8.9 86 86 ESE 6 9 30.11 1020 10 16 N/A
6:53 am 06:53 Mostly Cloudy 54 12.2 49 9.4 83 83 SSE 5 7 30.12 1020 10 16 N/A
7:53 am 07:53 Cloudy 55 12.8 49 9.4 80 80 S 8 13 30.11 1020 10 16 N/A
8:53 am 08:53 Sunny 59 15 51 10.6 75 75 ESE 6 9 30.09 1019 10 16 0.00 0.00
9:53 am 09:53 Sunny 64 17.8 50 10 60 60 S 6 9 30.09 1019 10 16 N/A
10:53 am 10:53 Sunny 70 21.1 57 13.9 64 64 N N/A 30.08 1019 10 16 N/A
11:53 am 11:53 Sunny 73 22.8 61 16.1 66 66 N N/A 30.05 1018 10 16 N/A
12:53 pm 12:53 Sunny 74 23.3 64 17.8 71 71 undefined N/A 30.03 1017 10 16 N/A
1:53 pm 13:53 Partly Cloudy with Nearby Thunderstorms 71 21.7 59 15 66 66 N N/A 30.02 1017 10 16 N/A
2:15 pm 14:15 Mostly Cloudy with Light Rain 70 21.1 56 13.3 61 61 NW 5 7 29.91 1013 10 16 0.00 0.00
2:53 pm 14:53 Cloudy 70 21.1 54 12.2 57 57 ESE 6 9 30.01 1016 10 16 0.00 0.00
3:53 pm 15:53 Sunny 73 22.8 62 16.7 69 69 SSE 3 6 29.99 1016 10 16 0.00 0.00
4:53 pm 16:53 Partly Cloudy with Nearby Thunderstorms 74 23.3 60 15.6 62 62 N 7 11 29.98 1015 10 16 N/A
5:11 pm 17:11 Sunny 76 24.4 67 19.4 74 74 NNE 9 15 29.83 1010 10 16 N/A
5:53 pm 17:53 Sunny 72 22.2 60 15.6 66 66 NE 10 17 30.00 1016 10 16 N/A
6:53 pm 18:53 Mostly Cloudy 67 19.4 52 11.1 59 59 SE 13 20 30.01 1016 10 16 N/A
7:53 pm 19:53 Mostly Sunny 64 17.8 51 10.6 63 63 SE 10 17 30.01 1016 10 16 N/A
8:53 pm 20:53 Clear 58 14.4 49 9.4 72 72 SE 5 7 30.02 1017 10 16 N/A
9:53 pm 21:53 Clear 54 12.2 48 8.9 80 80 ENE 6 9 30.04 1017 10 16 N/A
10:53 pm 22:53 Clear 53 11.7 47 8.3 80 80 E 6 9 30.02 1017 10 16 N/A
11:53 pm 23:53 Clear 53 11.7 46 7.8 77 77 ESE 3 6 30.00 1016 10 16 N/A

Powered by AerisWeather